Regional Weather Roundup
Issued by NWS

Home | Current Version | Previous Version | Graphics & Text | Print | Product List | Glossary On
Versions: 1 2 3 4 5 6 7 8 9 10 11 12 13 14 15 16 17 18 19 20 21 22 23 24 25 26 27 28 29 30 31 32 33 34 35 36 37 38 39 40 41 42 43 44 45 46 47 48 49 50
000
ASUS43 KFSD 291802
RWRSD

WEATHER ROUNDUP FOR SOUTH DAKOTA
NATIONAL WEATHER SERVICE SIOUX FALLS SD
100 PM CDT WED OCT 29 2014

NOTE: "FAIR" INDICATES FEW OR NO CLOUDS BELOW 12,000 FEET WITH NO
SIGNIFICANT WEATHER AND/OR OBSTRUCTIONS TO VISIBILITY.


SDZ001>005-009-010-012>017-291900-
NORTHWEST AND NORTH CENTRAL SOUTH DAKOTA

CITY           SKY/WX    TMP DP  RH WIND       PRES   REMARKS
BUFFALO          N/A     53  26  35 W13       29.92S
FAITH            N/A     45  28  51 S9        29.98S
MOBRIDGE       SUNNY     50  32  50 S17       30.00F
$$

SDZ012>016-024>037-041>051-057-063-072>074-291900-
SOUTHWEST AND SOUTH CENTRAL SOUTH DAKOTA

CITY           SKY/WX    TMP DP  RH WIND       PRES   REMARKS
RAPID CTY ARPT SUNNY     59  26  28 S3        29.98F
PIERRE         SUNNY     52  29  41 SE16      30.02F
CUSTER         SUNNY     55  19  24 SW8       30.02F
ELLSWORTH AFB  SUNNY     62  26  25 VRB1      29.97F
PHILIP         SUNNY     54  28  36 S7        29.99F
PINE RIDGE     SUNNY     59  21  23 W12       30.02F
SPEARFISH      FAIR      59  30  33 W6        30.00S
WINNER         FAIR      57  25  29 S15       30.05F
$$

SDZ004>011-016>023-039-040-291900-
NORTHEAST SOUTH DAKOTA

CITY           SKY/WX    TMP DP  RH WIND       PRES   REMARKS
ABERDEEN       SUNNY     47  30  51 S12       30.10F
WATERTOWN      FAIR      39  30  70 SW7       30.11F
SISSETON         N/A     41  30  65 S3        30.12F
$$

SDZ017-020-022-023-036>040-048>070-291900-
SOUTHEAST SOUTH DAKOTA

CITY           SKY/WX    TMP DP  RH WIND       PRES   REMARKS
SIOUX FALLS    FAIR      46  33  60 VRB3      30.16F
HURON          SUNNY     47  30  51 S10       30.12F
CHAMBERLAIN    SUNNY     50  31  47 SE14G20   30.07F
MITCHELL       SUNNY     47  32  56 SE7       30.15F
$$

ABBREVIATIONS USED IN REMARKS
   TC - TEMPERATURE IN CELSIUS
  WCI - WIND CHILL INDEX
   HX - HEAT INDEX
  VSB - VISIBILITY




USA.gov is the U.S. government's official web portal to all federal, state and local government web resources and services.